Precipitable_Water
0.63 0.63 0.65 0.65 0.63 0.62 0.61 0.57 0.60 0.62 0.63 0.68 0.73 0.78 0.82 0.86 0.86 0.84 0.83 0.78 0.77 0.75 0.74 0.75 0.74 0.71 0.70 0.72 0.73 0.77 0.83 0.84 0.91 0.96 1.00 1.01 1.05 1.11 1.17 1.17 1.14 1.15 1.16 1.18 1.21 1.18 1.16 1.15 1.14 1.24 1.32 1.35 1.36 1.37 1.41 1.42 1.41 1.42 1.45 1.46 1.44 1.42 1.38 1.31 1.21 1.19 1.32 1.37 1.30 1.30 1.53 1.52 1.44 1.43 1.39 1.40 1.41 1.36 1.33 1.36 1.38 1.35 1.34 1.33 1.32
0.63 0.64 0.65 0.64 0.63 0.62 0.61 0.58 0.60 0.62 0.62 0.67 0.72 0.75 0.77 0.81 0.84 0.83 0.79 0.79 0.75 0.72 0.71 0.72 0.73 0.72 0.70 0.72 0.74 0.77 0.83 0.85 0.89 0.94 0.98 1.00 1.02 1.10 1.15 1.16 1.15 1.14 1.17 1.16 1.19 1.21 1.23 1.25 1.23 1.22 1.26 1.28 1.34 1.36 1.31 1.36 1.39 1.34 1.39 1.38 1.36 1.39 1.44 1.34 1.27 1.21 1.17 1.35 1.27 1.34 1.38 1.62 1.38 1.43 1.39 1.38 1.42 1.39 1.31 1.34 1.39 1.39 1.35 1.36 1.36
0.64 0.64 0.63 0.62 0.61 0.61 0.59 0.56 0.58 0.60 0.59 0.63 0.69 0.75 0.77 0.78 0.80 0.78 0.77 0.75 0.74 0.73 0.72 0.71 0.70 0.71 0.70 0.71 0.75 0.78 0.82 0.85 0.89 0.93 0.98 1.01 1.01 1.06 1.10 1.14 1.17 1.16 1.13 1.17 1.18 1.21 1.21 1.19 1.26 1.32 1.32 1.32 1.35 1.39 1.35 1.33 1.35 1.38 1.37 1.39 1.36 1.37 1.42 1.42 1.32 1.22 1.21 1.26 1.35 1.28 1.25 1.37 1.44 1.44 1.45 1.46 1.49 1.47 1.38 1.37 1.42 1.45 1.46 1.45 1.42
0.63 0.63 0.62 0.61 0.60 0.58 0.57 0.55 0.57 0.59 0.59 0.62 0.68 0.74 0.77 0.74 0.76 0.75 0.76 0.75 0.73 0.74 0.74 0.72 0.72 0.71 0.70 0.69 0.72 0.79 0.83 0.87 0.89 0.93 0.97 1.00 1.02 1.03 1.08 1.11 1.14 1.17 1.18 1.16 1.20 1.23 1.17 1.14 1.22 1.32 1.36 1.30 1.35 1.36 1.37 1.36 1.34 1.34 1.33 1.37 1.36 1.37 1.41 1.45 1.41 1.30 1.28 1.23 1.33 1.27 1.31 1.27 1.36 1.51 1.45 1.53 1.46 1.42 1.43 1.48 1.50 1.49 1.51 1.50 1.49
0.63 0.62 0.62 0.60 0.57 0.56 0.55 0.54 0.56 0.59 0.60 0.62 0.69 0.74 0.76 0.74 0.76 0.75 0.75 0.73 0.72 0.73 0.74 0.74 0.72 0.72 0.70 0.69 0.69 0.73 0.79 0.86 0.89 0.92 0.96 1.01 1.02 1.03 1.07 1.10 1.13 1.15 1.17 1.16 1.18 1.20 1.19 1.19 1.27 1.33 1.34 1.32 1.35 1.37 1.36 1.35 1.34 1.33 1.34 1.34 1.35 1.35 1.41 1.40 1.41 1.40 1.32 1.24 1.29 1.36 1.34 1.32 1.35 1.48 1.55 1.43 1.40 1.41 1.43 1.42 1.48 1.49 1.53 1.56 1.57
0.62 0.61 0.61 0.57 0.55 0.54 0.53 0.53 0.56 0.59 0.61 0.63 0.67 0.73 0.76 0.78 0.77 0.76 0.74 0.72 0.73 0.74 0.75 0.74 0.72 0.72 0.70 0.70 0.69 0.69 0.75 0.82 0.86 0.89 0.93 0.97 1.01 1.03 1.05 1.08 1.11 1.13 1.15 1.17 1.19 1.23 1.21 1.22 1.25 1.29 1.28 1.27 1.28 1.34 1.39 1.38 1.36 1.34 1.34 1.34 1.36 1.34 1.34 1.40 1.43 1.40 1.35 1.30 1.31 1.31 1.37 1.30 1.29 1.26 1.42 1.40 1.38 1.39 1.37 1.42 1.53 1.51 1.51 1.51 1.52
0.61 0.60 0.59 0.56 0.53 0.52 0.51 0.52 0.58 0.61 0.64 0.67 0.70 0.75 0.80 0.80 0.78 0.74 0.74 0.73 0.74 0.74 0.74 0.74 0.74 0.73 0.71 0.71 0.69 0.69 0.70 0.76 0.79 0.83 0.87 0.92 0.96 0.99 1.01 1.03 1.06 1.08 1.10 1.13 1.17 1.20 1.19 1.21 1.22 1.25 1.23 1.22 1.20 1.21 1.25 1.30 1.35 1.35 1.37 1.35 1.36 1.37 1.37 1.37 1.41 1.39 1.36 1.32 1.33 1.35 1.34 1.37 1.35 1.25 1.38 1.51 1.46 1.37 1.39 1.42 1.41 1.48 1.50 1.46 1.42
0.59 0.59 0.58 0.54 0.52 0.52 0.50 0.54 0.59 0.63 0.67 0.70 0.73 0.78 0.79 0.77 0.78 0.77 0.74 0.73 0.78 0.78 0.75 0.74 0.74 0.74 0.73 0.71 0.70 0.70 0.69 0.69 0.71 0.75 0.79 0.84 0.90 0.94 0.97 0.98 0.99 1.02 1.06 1.09 1.11 1.17 1.19 1.19 1.20 1.20 1.18 1.22 1.23 1.21 1.19 1.19 1.25 1.28 1.34 1.34 1.34 1.33 1.35 1.35 1.37 1.36 1.34 1.33 1.31 1.30 1.32 1.32 1.35 1.35 1.40 1.41 1.33 1.29 1.32 1.32 1.31 1.41 1.39 1.40 1.43
0.58 0.57 0.56 0.53 0.52 0.52 0.51 0.55 0.61 0.64 0.67 0.72 0.75 0.79 0.78 0.76 0.77 0.77 0.76 0.75 0.80 0.81 0.79 0.76 0.74 0.73 0.74 0.71 0.69 0.70 0.69 0.66 0.66 0.68 0.71 0.76 0.80 0.85 0.91 0.94 0.94 0.96 0.99 1.03 1.07 1.11 1.16 1.21 1.21 1.26 1.24 1.26 1.23 1.24 1.23 1.23 1.22 1.22 1.30 1.34 1.33 1.32 1.30 1.34 1.34 1.35 1.31 1.33 1.31 1.33 1.32 1.30 1.30 1.29 1.28 1.27 1.24 1.25 1.35 1.35 1.28 1.36 1.33 1.34 1.51
0.55 0.55 0.54 0.52 0.50 0.50 0.49 0.53 0.59 0.62 0.65 0.70 0.74 0.77 0.76 0.77 0.77 0.78 0.77 0.76 0.79 0.83 0.80 0.77 0.76 0.75 0.73 0.71 0.70 0.70 0.70 0.67 0.65 0.64 0.66 0.70 0.74 0.78 0.84 0.88 0.91 0.91 0.91 0.93 0.98 1.03 1.06 1.13 1.17 1.20 1.23 1.21 1.20 1.20 1.20 1.20 1.21 1.23 1.28 1.27 1.26 1.26 1.26 1.32 1.36 1.33 1.31 1.28 1.27 1.30 1.25 1.26 1.30 1.32 1.30 1.34 1.39 1.39 1.36 1.34 1.28 1.36 1.37 1.33 1.39
0.54 0.52 0.51 0.51 0.50 0.49 0.48 0.52 0.57 0.59 0.63 0.66 0.73 0.76 0.78 0.79 0.79 0.77 0.78 0.78 0.78 0.81 0.82 0.77 0.75 0.76 0.74 0.72 0.70 0.71 0.72 0.68 0.65 0.64 0.64 0.66 0.69 0.73 0.75 0.80 0.85 0.87 0.86 0.85 0.88 0.94 1.00 1.05 1.11 1.15 1.15 1.16 1.19 1.20 1.20 1.21 1.23 1.25 1.27 1.29 1.29 1.26 1.24 1.24 1.29 1.36 1.34 1.30 1.30 1.31 1.27 1.25 1.30 1.38 1.39 1.38 1.41 1.41 1.38 1.36 1.36 1.29 1.28 1.19 1.19
0.51 0.51 0.51 0.49 0.49 0.48 0.47 0.50 0.54 0.57 0.60 0.63 0.67 0.72 0.76 0.77 0.76 0.75 0.74 0.75 0.76 0.82 0.81 0.80 0.78 0.77 0.77 0.74 0.72 0.69 0.70 0.67 0.66 0.67 0.67 0.68 0.68 0.68 0.69 0.72 0.76 0.79 0.82 0.82 0.85 0.93 0.98 1.00 1.03 1.09 1.12 1.16 1.21 1.23 1.24 1.25 1.25 1.25 1.26 1.28 1.28 1.28 1.30 1.29 1.27 1.30 1.35 1.33 1.31 1.30 1.30 1.29 1.32 1.38 1.39 1.40 1.39 1.41 1.44 1.40 1.40 1.33 1.30 1.27 1.26
0.49 0.48 0.48 0.48 0.48 0.49 0.48 0.48 0.52 0.55 0.59 0.62 0.67 0.69 0.71 0.71 0.72 0.72 0.73 0.74 0.76 0.76 0.80 0.80 0.79 0.78 0.77 0.74 0.73 0.72 0.70 0.67 0.68 0.70 0.71 0.70 0.68 0.68 0.68 0.70 0.70 0.76 0.79 0.80 0.84 0.91 0.97 0.99 1.00 1.01 1.06 1.07 1.13 1.19 1.23 1.23 1.26 1.27 1.27 1.28 1.30 1.31 1.29 1.30 1.35 1.33 1.34 1.32 1.33 1.35 1.36 1.37 1.35 1.39 1.45 1.44 1.48 1.39 1.40 1.36 1.38 1.36 1.36 1.30 1.32
0.47 0.46 0.46 0.46 0.48 0.49 0.47 0.47 0.51 0.54 0.58 0.60 0.65 0.67 0.69 0.70 0.72 0.72 0.72 0.73 0.73 0.74 0.79 0.80 0.80 0.77 0.76 0.75 0.74 0.74 0.72 0.68 0.72 0.75 0.76 0.76 0.74 0.69 0.69 0.70 0.70 0.73 0.77 0.80 0.82 0.86 0.91 0.96 0.99 1.00 1.02 1.04 1.06 1.10 1.15 1.19 1.21 1.23 1.26 1.27 1.29 1.29 1.27 1.28 1.33 1.36 1.36 1.34 1.32 1.32 1.41 1.45 1.40 1.41 1.46 1.47 1.41 1.34 1.32 1.29 1.33 1.33 1.32 1.33 1.44
0.45 0.45 0.45 0.45 0.47 0.48 0.47 0.47 0.49 0.53 0.56 0.58 0.62 0.65 0.67 0.69 0.70 0.71 0.71 0.71 0.72 0.73 0.75 0.79 0.79 0.78 0.78 0.77 0.75 0.73 0.75 0.70 0.75 0.77 0.80 0.80 0.79 0.75 0.76 0.73 0.73 0.74 0.76 0.78 0.80 0.82 0.86 0.91 0.95 0.97 1.00 1.01 1.02 1.03 1.07 1.12 1.14 1.17 1.20 1.23 1.24 1.24 1.23 1.23 1.26 1.32 1.38 1.37 1.37 1.36 1.38 1.38 1.34 1.37 1.40 1.41 1.38 1.35 1.35 1.32 1.33 1.33 1.34 1.38 1.39
0.42 0.44 0.45 0.44 0.46 0.47 0.47 0.47 0.47 0.50 0.53 0.56 0.58 0.61 0.64 0.67 0.68 0.71 0.72 0.72 0.74 0.76 0.80 0.81 0.78 0.77 0.78 0.77 0.76 0.71 0.74 0.71 0.76 0.79 0.82 0.81 0.82 0.82 0.80 0.76 0.75 0.73 0.75 0.76 0.79 0.81 0.83 0.86 0.90 0.95 0.97 1.00 1.00 1.02 1.03 1.08 1.10 1.09 1.11 1.17 1.21 1.24 1.25 1.27 1.29 1.35 1.39 1.37 1.36 1.35 1.35 1.36 1.36 1.35 1.36 1.39 1.40 1.39 1.39 1.39 1.38 1.34 1.28 1.23 1.23
0.41 0.44 0.42 0.44 0.45 0.46 0.46 0.45 0.46 0.49 0.51 0.51 0.51 0.54 0.58 0.64 0.67 0.71 0.71 0.73 0.73 0.74 0.77 0.78 0.78 0.77 0.77 0.76 0.74 0.70 0.71 0.72 0.75 0.80 0.83 0.83 0.83 0.82 0.80 0.79 0.77 0.76 0.75 0.77 0.77 0.77 0.79 0.84 0.87 0.89 0.93 0.93 0.96 1.00 1.06 1.07 1.05 1.04 1.04 1.08 1.15 1.19 1.23 1.30 1.32 1.34 1.36 1.36 1.36 1.35 1.33 1.33 1.34 1.35 1.35 1.35 1.34 1.36 1.33 1.26 1.23 1.27 1.20 1.15 1.18
0.41 0.42 0.43 0.43 0.43 0.45 0.45 0.44 0.44 0.46 0.47 0.47 0.48 0.49 0.53 0.60 0.67 0.72 0.70 0.71 0.72 0.74 0.76 0.76 0.79 0.79 0.77 0.75 0.74 0.68 0.70 0.73 0.75 0.79 0.83 0.83 0.84 0.82 0.80 0.78 0.76 0.75 0.75 0.77 0.78 0.76 0.78 0.82 0.84 0.87 0.88 0.88 0.93 0.96 1.01 1.04 0.99 0.98 1.03 1.02 1.03 1.07 1.13 1.23 1.30 1.32 1.34 1.34 1.35 1.35 1.34 1.34 1.34 1.34 1.32 1.30 1.30 1.32 1.27 1.17 1.24 1.23 1.16 1.16 1.12
0.41 0.42 0.43 0.45 0.44 0.43 0.44 0.44 0.44 0.45 0.46 0.47 0.48 0.47 0.48 0.51 0.58 0.67 0.70 0.70 0.70 0.73 0.75 0.75 0.76 0.77 0.78 0.76 0.72 0.70 0.70 0.74 0.76 0.79 0.82 0.85 0.87 0.86 0.83 0.80 0.74 0.73 0.74 0.74 0.76 0.76 0.77 0.81 0.81 0.83 0.84 0.86 0.89 0.94 0.98 1.00 0.98 0.98 1.00 0.96 0.94 0.96 1.03 1.10 1.14 1.19 1.23 1.24 1.26 1.29 1.28 1.28 1.30 1.29 1.29 1.30 1.29 1.30 1.28 1.24 1.24 1.19 1.14 1.14 1.15
0.43 0.44 0.44 0.43 0.44 0.43 0.44 0.43 0.43 0.43 0.44 0.45 0.44 0.46 0.49 0.48 0.51 0.56 0.64 0.69 0.70 0.72 0.75 0.75 0.74 0.75 0.76 0.75 0.73 0.70 0.69 0.74 0.76 0.79 0.81 0.84 0.85 0.86 0.84 0.79 0.75 0.75 0.74 0.72 0.71 0.74 0.77 0.78 0.78 0.81 0.83 0.84 0.86 0.90 0.95 0.98 0.98 0.99 1.00 0.92 0.87 0.88 1.00 1.03 1.07 1.09 1.11 1.13 1.16 1.20 1.21 1.23 1.23 1.21 1.20 1.19 1.19 1.20 1.19 1.19 1.18 1.16 1.13 1.13 1.14
0.44 0.44 0.44 0.44 0.43 0.43 0.43 0.42 0.41 0.40 0.43 0.43 0.42 0.43 0.48 0.51 0.52 0.52 0.56 0.63 0.67 0.69 0.71 0.73 0.73 0.73 0.74 0.73 0.71 0.69 0.70 0.72 0.77 0.78 0.80 0.82 0.84 0.85 0.83 0.80 0.77 0.74 0.72 0.71 0.71 0.70 0.71 0.73 0.74 0.79 0.81 0.82 0.83 0.87 0.91 0.95 0.98 0.99 0.99 0.94 0.93 0.95 1.02 1.00 1.03 1.05 1.04 1.04 1.05 1.06 1.06 1.07 1.07 1.09 1.10 1.11 1.12 1.13 1.14 1.15 1.16 1.17 1.15 1.12 1.10
0.46 0.43 0.42 0.41 0.43 0.44 0.43 0.43 0.43 0.41 0.41 0.41 0.40 0.41 0.42 0.38 0.43 0.47 0.50 0.54 0.60 0.66 0.71 0.70 0.69 0.70 0.70 0.69 0.68 0.69 0.72 0.73 0.76 0.78 0.79 0.80 0.82 0.83 0.83 0.81 0.80 0.75 0.71 0.69 0.70 0.70 0.71 0.73 0.73 0.76 0.78 0.79 0.80 0.83 0.86 0.90 0.93 0.96 0.97 0.97 0.97 0.96 0.95 0.94 0.96 0.98 0.98 0.97 0.97 0.97 0.98 0.98 0.99 1.00 1.02 1.03 1.05 1.07 1.07 1.07 1.08 1.08 1.10 1.11 1.10
0.48 0.44 0.41 0.40 0.41 0.42 0.43 0.43 0.41 0.41 0.40 0.41 0.39 0.36 0.35 0.31 0.29 0.31 0.40 0.49 0.54 0.61 0.67 0.68 0.66 0.68 0.66 0.65 0.66 0.69 0.73 0.73 0.76 0.78 0.79 0.80 0.80 0.80 0.80 0.80 0.78 0.78 0.72 0.69 0.69 0.69 0.71 0.72 0.74 0.76 0.77 0.78 0.78 0.78 0.80 0.83 0.85 0.86 0.88 0.90 0.91 0.90 0.90 0.89 0.89 0.90 0.92 0.93 0.93 0.92 0.93 0.95 0.95 0.96 0.98 0.98 1.01 1.02 1.01 1.01 1.01 1.00 1.00 1.02 1.03
0.51 0.45 0.41 0.38 0.40 0.41 0.41 0.41 0.42 0.41 0.41 0.40 0.36 0.34 0.31 0.25 0.21 0.23 0.33 0.44 0.51 0.58 0.63 0.64 0.64 0.62 0.59 0.61 0.65 0.68 0.73 0.75 0.75 0.77 0.77 0.78 0.77 0.76 0.77 0.77 0.78 0.78 0.75 0.71 0.70 0.70 0.70 0.70 0.72 0.74 0.76 0.77 0.78 0.78 0.78 0.79 0.79 0.81 0.82 0.84 0.85 0.86 0.86 0.85 0.83 0.83 0.84 0.85 0.86 0.87 0.89 0.91 0.92 0.92 0.92 0.93 0.94 0.95 0.95 0.95 0.94 0.93 0.92 0.92 0.92
0.56 0.47 0.42 0.40 0.39 0.40 0.41 0.41 0.40 0.39 0.39 0.36 0.32 0.31 0.25 0.23 0.24 0.28 0.34 0.45 0.53 0.57 0.57 0.58 0.56 0.55 0.56 0.59 0.63 0.67 0.71 0.74 0.76 0.76 0.77 0.75 0.73 0.72 0.71 0.71 0.73 0.73 0.71 0.69 0.68 0.68 0.70 0.73 0.74 0.76 0.77 0.78 0.78 0.79 0.79 0.79 0.80 0.80 0.81 0.81 0.82 0.81 0.80 0.79 0.79 0.78 0.77 0.76 0.78 0.81 0.83 0.85 0.87 0.89 0.91 0.92 0.93 0.93 0.92 0.91 0.90 0.86 0.83 0.82 0.82
0.58 0.53 0.46 0.42 0.40 0.40 0.38 0.37 0.36 0.36 0.35 0.33 0.32 0.30 0.23 0.26 0.36 0.41 0.46 0.54 0.56 0.56 0.55 0.50 0.49 0.50 0.53 0.59 0.62 0.65 0.67 0.70 0.72 0.73 0.73 0.71 0.69 0.67 0.66 0.67 0.68 0.65 0.63 0.63 0.65 0.67 0.69 0.71 0.74 0.76 0.78 0.79 0.79 0.78 0.77 0.78 0.79 0.79 0.78 0.78 0.78 0.78 0.77 0.76 0.75 0.73 0.72 0.71 0.72 0.73 0.76 0.81 0.84 0.88 0.90 0.90 0.87 0.85 0.84 0.78 0.75 0.73 0.70 0.66 0.63
0.61 0.57 0.52 0.45 0.42 0.40 0.35 0.35 0.37 0.36 0.32 0.33 0.33 0.29 0.22 0.30 0.43 0.46 0.50 0.52 0.54 0.54 0.51 0.46 0.46 0.48 0.52 0.57 0.60 0.62 0.64 0.67 0.69 0.71 0.72 0.68 0.65 0.64 0.64 0.63 0.63 0.60 0.57 0.60 0.62 0.63 0.65 0.69 0.72 0.75 0.77 0.78 0.77 0.76 0.76 0.76 0.76 0.76 0.77 0.78 0.78 0.77 0.76 0.73 0.71 0.69 0.67 0.66 0.66 0.67 0.69 0.71 0.74 0.72 0.69 0.67 0.64 0.61 0.58 0.53 0.48 0.45 0.44 0.41 0.39
0.63 0.59 0.58 0.51 0.45 0.42 0.38 0.35 0.28 0.30 0.33 0.33 0.31 0.29 0.23 0.27 0.41 0.47 0.49 0.51 0.50 0.48 0.44 0.42 0.45 0.49 0.52 0.55 0.57 0.59 0.61 0.64 0.67 0.68 0.70 0.68 0.66 0.66 0.68 0.68 0.66 0.60 0.55 0.56 0.57 0.56 0.56 0.60 0.64 0.65 0.67 0.68 0.70 0.72 0.72 0.72 0.70 0.68 0.68 0.69 0.70 0.69 0.68 0.65 0.63 0.61 0.59 0.57 0.54 0.53 0.50 0.47 0.42 0.39 0.36 0.33 0.31 0.31 0.31 0.31 0.30 0.31 0.32 0.32 0.30
0.66 0.62 0.60 0.57 0.49 0.43 0.39 0.38 0.35 0.30 0.32 0.34 0.31 0.28 0.23 0.22 0.37 0.47 0.51 0.51 0.46 0.44 0.40 0.42 0.44 0.46 0.45 0.46 0.46 0.46 0.49 0.52 0.57 0.63 0.64 0.65 0.66 0.65 0.64 0.63 0.60 0.53 0.49 0.49 0.51 0.50 0.49 0.48 0.48 0.48 0.50 0.51 0.53 0.55 0.57 0.59 0.60 0.59 0.57 0.55 0.55 0.52 0.48 0.46 0.43 0.41 0.38 0.35 0.31 0.29 0.26 0.25 0.24 0.24 0.25 0.26 0.28 0.30 0.32 0.31 0.31 0.29 0.28 0.27 0.25
0.67 0.63 0.62 0.60 0.55 0.47 0.41 0.39 0.37 0.32 0.31 0.33 0.33 0.29 0.24 0.20 0.20 0.36 0.44 0.41 0.36 0.32 0.33 0.43 0.42 0.42 0.41 0.44 0.46 0.45 0.44 0.47 0.52 0.54 0.55 0.56 0.57 0.59 0.57 0.52 0.47 0.43 0.40 0.45 0.49 0.43 0.42 0.41 0.41 0.41 0.41 0.41 0.41 0.41 0.40 0.41 0.41 0.40 0.39 0.37 0.34 0.32 0.30 0.29 0.28 0.27 0.27 0.26 0.26 0.26 0.26 0.26 0.25 0.25 0.24 0.22 0.22 0.22 0.23 0.24 0.24 0.25 0.23 0.22 0.21
0.66 0.64 0.63 0.61 0.58 0.52 0.45 0.41 0.39 0.34 0.33 0.34 0.32 0.29 0.27 0.21 0.20 0.26 0.34 0.37 0.35 0.30 0.37 0.40 0.40 0.41 0.42 0.41 0.42 0.42 0.41 0.42 0.44 0.46 0.46 0.46 0.46 0.45 0.41 0.37 0.32 0.28 0.28 0.34 0.33 0.32 0.32 0.31 0.31 0.32 0.31 0.31 0.30 0.29 0.27 0.26 0.25 0.24 0.24 0.25 0.25 0.26 0.27 0.27 0.28 0.28 0.28 0.27 0.27 0.26 0.26 0.25 0.24 0.24 0.23 0.22 0.22 0.22 0.22 0.22 0.21 0.20 0.19 0.20 0.19
0.66 0.67 0.65 0.63 0.61 0.57 0.50 0.45 0.41 0.36 0.34 0.35 0.33 0.28 0.26 0.27 0.22 0.22 0.26 0.31 0.33 0.32 0.39 0.39 0.38 0.38 0.38 0.36 0.35 0.34 0.34 0.35 0.36 0.37 0.37 0.38 0.36 0.33 0.30 0.26 0.24 0.22 0.25 0.28 0.26 0.24 0.24 0.23 0.23 0.24 0.24 0.24 0.24 0.24 0.25 0.25 0.25 0.26 0.27 0.27 0.27 0.28 0.27 0.26 0.26 0.26 0.26 0.26 0.25 0.24 0.24 0.23 0.22 0.22 0.21 0.22 0.22 0.22 0.22 0.22 0.22 0.21 0.21 0.19 0.20
0.70 0.74 0.73 0.68 0.64 0.62 0.56 0.49 0.44 0.40 0.36 0.35 0.33 0.30 0.26 0.24 0.23 0.22 0.21 0.25 0.29 0.32 0.39 0.39 0.37 0.36 0.33 0.32 0.31 0.31 0.30 0.29 0.29 0.30 0.29 0.29 0.30 0.29 0.28 0.25 0.24 0.23 0.23 0.27 0.26 0.26 0.26 0.26 0.24 0.24 0.24 0.24 0.24 0.24 0.24 0.25 0.24 0.24 0.23 0.22 0.22 0.24 0.26 0.26 0.28 0.26 0.26 0.25 0.25 0.23 0.23 0.22 0.22 0.22 0.22 0.22 0.22 0.21 0.22 0.22 0.22 0.22 0.22 0.22 0.22
0.77 0.79 0.75 0.70 0.68 0.65 0.61 0.56 0.49 0.43 0.39 0.38 0.36 0.33 0.29 0.27 0.21 0.25 0.21 0.19 0.22 0.30 0.38 0.40 0.37 0.36 0.34 0.32 0.32 0.32 0.32 0.32 0.32 0.31 0.31 0.30 0.29 0.28 0.26 0.25 0.25 0.27 0.31 0.32 0.30 0.28 0.28 0.27 0.26 0.25 0.24 0.23 0.23 0.23 0.23 0.22 0.22 0.22 0.22 0.23 0.23 0.25 0.26 0.27 0.25 0.24 0.24 0.25 0.25 0.26 0.26 0.25 0.25 0.23 0.22 0.22 0.23 0.23 0.23 0.23 0.24 0.23 0.22 0.22 0.23
0.77 0.76 0.74 0.70 0.68 0.66 0.65 0.62 0.57 0.48 0.43 0.41 0.39 0.34 0.31 0.29 0.23 0.20 0.22 0.20 0.21 0.27 0.33 0.36 0.37 0.36 0.35 0.33 0.33 0.34 0.35 0.36 0.35 0.34 0.33 0.32 0.30 0.29 0.28 0.25 0.23 0.25 0.29 0.32 0.30 0.27 0.25 0.24 0.24 0.23 0.23 0.23 0.24 0.24 0.23 0.24 0.24 0.25 0.25 0.26 0.28 0.30 0.30 0.29 0.29 0.29 0.28 0.28 0.27 0.26 0.26 0.26 0.26 0.26 0.26 0.26 0.25 0.25 0.25 0.26 0.26 0.27 0.26 0.27 0.27
0.76 0.76 0.76 0.72 0.68 0.67 0.67 0.66 0.63 0.55 0.47 0.44 0.43 0.40 0.35 0.32 0.25 0.19 0.20 0.22 0.24 0.29 0.34 0.36 0.36 0.36 0.36 0.36 0.35 0.35 0.36 0.38 0.38 0.38 0.36 0.35 0.33 0.30 0.28 0.28 0.26 0.25 0.27 0.27 0.25 0.24 0.24 0.24 0.24 0.24 0.25 0.26 0.27 0.28 0.28 0.29 0.29 0.30 0.30 0.31 0.31 0.30 0.30 0.30 0.31 0.31 0.30 0.29 0.29 0.30 0.30 0.30 0.31 0.31 0.31 0.31 0.31 0.30 0.30 0.30 0.30 0.30 0.30 0.30 0.32
0.77 0.77 0.77 0.76 0.72 0.69 0.70 0.70 0.67 0.62 0.53 0.48 0.47 0.44 0.39 0.34 0.29 0.23 0.18 0.20 0.24 0.30 0.36 0.38 0.36 0.34 0.34 0.35 0.35 0.36 0.37 0.38 0.39 0.39 0.39 0.38 0.37 0.35 0.37 0.35 0.31 0.29 0.26 0.25 0.25 0.24 0.24 0.24 0.26 0.27 0.28 0.29 0.30 0.31 0.31 0.31 0.32 0.32 0.32 0.33 0.33 0.33 0.33 0.34 0.34 0.33 0.33 0.34 0.36 0.37 0.37 0.37 0.37 0.37 0.36 0.35 0.35 0.37 0.37 0.38 0.37 0.36 0.35 0.35 0.36
0.78 0.79 0.80 0.81 0.79 0.75 0.72 0.71 0.70 0.66 0.58 0.50 0.48 0.49 0.45 0.37 0.31 0.26 0.21 0.19 0.23 0.27 0.32 0.36 0.34 0.32 0.31 0.32 0.35 0.35 0.36 0.37 0.39 0.38 0.39 0.38 0.37 0.36 0.39 0.37 0.33 0.30 0.28 0.28 0.27 0.28 0.27 0.29 0.31 0.32 0.33 0.35 0.35 0.36 0.36 0.36 0.36 0.36 0.36 0.37 0.37 0.37 0.36 0.36 0.37 0.38 0.38 0.39 0.39 0.40 0.40 0.40 0.40 0.39 0.39 0.39 0.39 0.40 0.40 0.42 0.42 0.40 0.39 0.37 0.37
0.80 0.80 0.81 0.82 0.81 0.79 0.76 0.73 0.71 0.67 0.62 0.53 0.48 0.49 0.48 0.43 0.36 0.31 0.26 0.21 0.21 0.24 0.28 0.33 0.33 0.34 0.34 0.35 0.34 0.35 0.34 0.34 0.34 0.35 0.36 0.37 0.37 0.37 0.39 0.39 0.34 0.32 0.31 0.31 0.32 0.33 0.33 0.34 0.35 0.37 0.38 0.39 0.40 0.40 0.40 0.39 0.39 0.39 0.40 0.39 0.38 0.36 0.37 0.39 0.41 0.42 0.42 0.41 0.42 0.43 0.43 0.44 0.45 0.45 0.45 0.43 0.42 0.42 0.41 0.39 0.38 0.38 0.36 0.36 0.36
0.78 0.81 0.84 0.83 0.82 0.80 0.77 0.75 0.71 0.68 0.64 0.57 0.50 0.49 0.49 0.47 0.41 0.35 0.31 0.27 0.23 0.24 0.26 0.29 0.31 0.33 0.36 0.37 0.34 0.34 0.33 0.33 0.34 0.36 0.37 0.37 0.37 0.38 0.40 0.39 0.36 0.35 0.34 0.35 0.36 0.39 0.39 0.40 0.40 0.41 0.42 0.43 0.44 0.44 0.44 0.44 0.43 0.43 0.43 0.42 0.41 0.41 0.43 0.44 0.44 0.44 0.44 0.45 0.45 0.45 0.46 0.47 0.47 0.46 0.45 0.43 0.41 0.40 0.38 0.37 0.36 0.37 0.38 0.37 0.37
0.77 0.80 0.83 0.82 0.80 0.79 0.77 0.75 0.71 0.68 0.66 0.62 0.56 0.51 0.50 0.49 0.45 0.41 0.36 0.33 0.30 0.26 0.25 0.27 0.30 0.33 0.35 0.36 0.35 0.35 0.34 0.34 0.35 0.37 0.38 0.39 0.40 0.40 0.41 0.40 0.39 0.39 0.39 0.39 0.40 0.43 0.43 0.43 0.44 0.44 0.45 0.45 0.46 0.46 0.46 0.47 0.47 0.47 0.47 0.47 0.48 0.47 0.49 0.50 0.50 0.50 0.51 0.50 0.50 0.48 0.46 0.45 0.44 0.43 0.41 0.41 0.41 0.40 0.39 0.39 0.39 0.39 0.40 0.40 0.40
0.78 0.79 0.79 0.79 0.79 0.79 0.77 0.75 0.72 0.69 0.67 0.65 0.61 0.56 0.52 0.50 0.48 0.45 0.41 0.38 0.36 0.33 0.29 0.28 0.29 0.32 0.34 0.34 0.35 0.36 0.36 0.36 0.37 0.38 0.40 0.40 0.41 0.42 0.42 0.42 0.43 0.44 0.43 0.45 0.45 0.47 0.48 0.48 0.48 0.48 0.48 0.48 0.49 0.49 0.50 0.51 0.51 0.51 0.52 0.52 0.53 0.53 0.53 0.54 0.55 0.55 0.54 0.52 0.51 0.50 0.49 0.47 0.44 0.42 0.42 0.41 0.41 0.41 0.41 0.41 0.41 0.41 0.41 0.41 0.40
0.78 0.79 0.79 0.79 0.77 0.77 0.77 0.76 0.73 0.70 0.68 0.66 0.65 0.62 0.56 0.52 0.50 0.48 0.45 0.42 0.39 0.37 0.35 0.33 0.31 0.32 0.33 0.32 0.34 0.36 0.36 0.37 0.38 0.39 0.40 0.41 0.42 0.43 0.44 0.45 0.46 0.48 0.50 0.52 0.52 0.53 0.53 0.53 0.53 0.53 0.54 0.54 0.55 0.54 0.54 0.55 0.56 0.57 0.57 0.57 0.57 0.57 0.56 0.56 0.56 0.57 0.56 0.54 0.53 0.52 0.51 0.51 0.49 0.47 0.45 0.43 0.42 0.42 0.42 0.42 0.42 0.42 0.41 0.41 0.41
0.76 0.78 0.81 0.82 0.81 0.78 0.76 0.76 0.74 0.72 0.70 0.68 0.68 0.66 0.61 0.55 0.51 0.49 0.47 0.46 0.44 0.41 0.38 0.38 0.37 0.37 0.37 0.35 0.35 0.35 0.34 0.35 0.36 0.38 0.40 0.42 0.44 0.45 0.47 0.49 0.51 0.52 0.53 0.54 0.55 0.55 0.55 0.55 0.55 0.56 0.57 0.58 0.59 0.60 0.60 0.60 0.60 0.59 0.59 0.58 0.58 0.59 0.59 0.58 0.57 0.57 0.57 0.56 0.54 0.53 0.52 0.52 0.52 0.51 0.50 0.48 0.47 0.45 0.44 0.44 0.43 0.42 0.41 0.41 0.41
0.73 0.73 0.74 0.74 0.76 0.79 0.81 0.80 0.78 0.75 0.73 0.71 0.69 0.68 0.65 0.59 0.53 0.50 0.48 0.47 0.47 0.46 0.44 0.41 0.40 0.40 0.42 0.42 0.37 0.34 0.34 0.35 0.36 0.38 0.41 0.42 0.44 0.46 0.49 0.51 0.53 0.54 0.55 0.56 0.57 0.58 0.58 0.58 0.58 0.59 0.59 0.60 0.62 0.62 0.62 0.62 0.62 0.62 0.61 0.60 0.59 0.58 0.58 0.60 0.61 0.61 0.60 0.57 0.55 0.54 0.53 0.53 0.52 0.52 0.51 0.50 0.49 0.47 0.45 0.44 0.44 0.42 0.42 0.42 0.41
0.70 0.73 0.73 0.72 0.75 0.77 0.80 0.81 0.79 0.77 0.75 0.73 0.71 0.68 0.67 0.63 0.56 0.52 0.50 0.48 0.47 0.48 0.47 0.46 0.44 0.41 0.40 0.43 0.43 0.38 0.36 0.37 0.38 0.40 0.42 0.45 0.46 0.48 0.51 0.52 0.54 0.56 0.57 0.58 0.59 0.60 0.60 0.61 0.60 0.60 0.61 0.62 0.63 0.65 0.65 0.64 0.64 0.63 0.63 0.62 0.61 0.61 0.63 0.64 0.64 0.62 0.61 0.60 0.57 0.56 0.54 0.54 0.53 0.53 0.53 0.52 0.51 0.49 0.47 0.46 0.45 0.44 0.43 0.43 0.42
0.66 0.68 0.70 0.71 0.71 0.73 0.76 0.78 0.79 0.77 0.76 0.74 0.72 0.71 0.69 0.66 0.62 0.56 0.52 0.50 0.49 0.48 0.48 0.49 0.49 0.47 0.43 0.40 0.42 0.43 0.40 0.37 0.39 0.41 0.43 0.45 0.48 0.50 0.52 0.54 0.55 0.56 0.58 0.60 0.61 0.60 0.62 0.62 0.62 0.62 0.62 0.63 0.66 0.66 0.63 0.63 0.62 0.62 0.63 0.63 0.63 0.63 0.62 0.62 0.62 0.62 0.62 0.62 0.60 0.57 0.56 0.54 0.54 0.53 0.53 0.53 0.50 0.48 0.47 0.45 0.45 0.44 0.43 0.42 0.41
0.66 0.66 0.68 0.70 0.70 0.71 0.72 0.74 0.75 0.75 0.75 0.74 0.73 0.72 0.71 0.69 0.66 0.61 0.57 0.54 0.52 0.51 0.51 0.51 0.51 0.50 0.49 0.45 0.42 0.41 0.41 0.40 0.39 0.40 0.41 0.45 0.49 0.51 0.54 0.56 0.58 0.59 0.60 0.61 0.63 0.64 0.65 0.65 0.64 0.63 0.64 0.66 0.66 0.65 0.64 0.63 0.63 0.62 0.62 0.62 0.63 0.64 0.63 0.63 0.63 0.62 0.62 0.63 0.62 0.60 0.58 0.56 0.55 0.53 0.52 0.52 0.50 0.47 0.45 0.45 0.43 0.43 0.41 0.39 0.37
0.67 0.67 0.68 0.69 0.71 0.72 0.72 0.73 0.76 0.79 0.77 0.74 0.74 0.73 0.72 0.70 0.68 0.66 0.61 0.58 0.56 0.55 0.54 0.52 0.50 0.49 0.49 0.48 0.45 0.42 0.40 0.38 0.38 0.38 0.40 0.43 0.48 0.52 0.54 0.57 0.60 0.63 0.63 0.63 0.64 0.64 0.63 0.64 0.64 0.65 0.66 0.68 0.67 0.66 0.65 0.63 0.61 0.61 0.60 0.61 0.62 0.63 0.63 0.62 0.61 0.59 0.59 0.60 0.59 0.59 0.58 0.56 0.54 0.52 0.51 0.50 0.49 0.48 0.46 0.45 0.44 0.42 0.40 0.37 0.34
0.67 0.68 0.68 0.70 0.73 0.75 0.79 0.76 0.76 0.79 0.78 0.80 0.77 0.76 0.74 0.73 0.70 0.68 0.65 0.62 0.60 0.59 0.57 0.55 0.51 0.49 0.47 0.47 0.46 0.44 0.42 0.39 0.37 0.38 0.40 0.43 0.47 0.52 0.55 0.60 0.63 0.64 0.64 0.64 0.64 0.64 0.64 0.65 0.67 0.67 0.67 0.67 0.66 0.64 0.63 0.62 0.61 0.61 0.61 0.61 0.62 0.61 0.61 0.60 0.59 0.57 0.57 0.57 0.58 0.58 0.57 0.56 0.55 0.53 0.52 0.51 0.50 0.48 0.46 0.44 0.42 0.40 0.36 0.34 0.31
0.68 0.68 0.69 0.69 0.72 0.76 0.77 0.78 0.78 0.79 0.81 0.81 0.79 0.79 0.76 0.74 0.72 0.70 0.68 0.66 0.64 0.63 0.61 0.58 0.55 0.51 0.47 0.47 0.46 0.46 0.45 0.45 0.45 0.44 0.43 0.44 0.48 0.53 0.57 0.61 0.65 0.64 0.65 0.66 0.67 0.67 0.66 0.66 0.66 0.65 0.65 0.64 0.63 0.63 0.62 0.62 0.61 0.61 0.61 0.61 0.60 0.60 0.59 0.58 0.57 0.56 0.57 0.58 0.59 0.59 0.57 0.56 0.55 0.53 0.52 0.50 0.47 0.46 0.44 0.41 0.38 0.36 0.33 0.30 0.28
Wind_Speed
14 14 14 14 14 15 15 15 16 16 16 16 16 16 16 16 16 16 17 17 18 19 19 20 20 20 19 19 18 18 18 18 18 18 18 18 18 18 19 20 21 22 22 23 24 25 26 27 29 30 30 29 29 29 29 29 28 28 28 27 27 27 26 25 24 23 23 22 21 19 18 19 20 20 20 20 20 20 20 20 20 20 20 20 20
14 14 14 14 14 15 15 15 16 16 16 16 17 17 17 17 16 16 17 17 18 19 20 20 20 20 20 19 18 18 17 17 17 18 18 18 18 18 18 19 20 21 22 22 23 24 25 26 27 29 30 30 29 29 29 29 29 29 29 28 28 28 28 27 26 25 24 23 23 22 19 19 20 21 20 20 20 20 20 20 20 20 20 20 20
14 14 14 14 14 14 15 15 16 17 17 17 17 17 17 17 17 17 17 17 18 18 19 20 20 20 19 19 18 18 17 16 17 17 17 18 18 18 18 18 18 19 20 21 22 23 24 24 24 26 28 29 29 29 29 29 29 29 29 29 29 30 30 29 28 26 25 24 24 24 22 20 20 21 21 21 20 20 20 20 20 20 20 21 21
14 14 13 14 14 14 15 16 16 17 17 17 17 17 17 16 17 16 16 16 17 17 18 18 19 19 19 18 18 18 17 16 16 16 17 18 18 18 18 18 18 18 19 19 20 21 22 23 22 24 26 28 28 28 28 29 30 30 30 30 30 30 30 30 30 28 27 26 25 25 24 22 21 21 21 21 22 21 21 21 21 20 20 20 20
13 13 13 13 14 14 15 16 16 17 17 16 16 17 16 15 16 15 15 15 16 16 16 17 18 18 18 17 18 18 17 16 16 16 16 17 18 18 18 18 18 18 18 18 18 19 20 21 21 21 24 26 27 26 27 28 29 30 30 30 30 30 30 30 30 29 29 28 27 26 26 25 23 22 22 22 22 22 22 22 21 20 20 20 19
13 13 13 13 14 14 15 16 16 17 17 16 16 16 15 15 15 15 14 14 14 14 15 15 16 16 17 17 17 17 17 17 16 16 16 17 17 17 18 18 18 18 18 18 18 18 19 20 20 20 22 23 24 25 25 26 28 29 30 30 30 30 30 30 30 30 30 29 28 27 27 26 25 24 23 23 23 22 22 22 21 21 20 20 20
13 13 13 13 14 14 14 15 16 16 16 16 16 15 14 14 14 14 14 14 13 13 13 13 14 15 15 16 16 17 17 17 17 16 16 17 17 17 17 17 17 18 18 18 18 18 18 19 19 19 20 21 22 22 22 23 24 27 28 30 30 30 30 30 29 30 30 30 29 29 28 27 26 26 25 23 24 24 23 22 21 21 21 21 21
13 13 13 13 13 14 15 15 16 16 16 15 16 15 14 13 14 13 13 13 12 12 12 12 12 13 14 15 15 15 16 17 17 17 17 17 17 17 17 17 17 17 17 18 18 18 19 19 18 18 19 20 20 20 20 20 21 23 25 27 29 30 30 30 30 30 30 30 30 29 29 28 27 27 26 25 25 25 25 24 22 21 22 23 23
13 12 12 13 13 14 15 15 15 16 15 15 15 14 13 13 13 13 12 12 12 12 11 11 11 12 13 13 14 15 15 16 16 17 17 17 17 17 18 17 17 17 17 17 17 18 18 18 18 18 18 18 19 20 20 20 20 20 22 24 26 28 28 29 30 31 31 31 31 30 29 29 28 28 27 27 26 26 26 26 24 23 23 24 24
12 12 12 13 14 14 15 14 15 15 15 15 14 13 12 12 12 12 12 11 11 11 11 10 10 10 11 12 13 14 15 15 16 16 17 17 17 17 18 18 18 17 17 17 17 17 17 17 18 18 19 19 19 19 20 20 20 19 20 21 23 25 26 27 28 30 31 31 31 31 30 29 29 28 28 28 28 27 26 26 26 25 24 24 24
12 12 12 13 14 14 14 14 14 15 15 14 14 12 12 12 12 12 11 11 11 11 10 10 9 10 10 11 12 13 14 15 15 16 17 17 17 17 17 18 18 18 18 17 17 16 16 16 17 17 18 19 19 20 20 20 20 20 19 20 21 22 24 25 26 27 29 30 31 31 31 30 29 29 29 28 28 27 27 27 26 26 25 25 25
12 12 12 13 13 13 13 14 14 14 14 14 13 12 12 12 12 11 11 11 11 10 10 9 9 9 10 10 11 12 13 13 14 15 16 17 18 18 18 18 18 18 18 17 17 16 16 15 15 16 16 17 19 19 19 19 20 19 19 19 19 20 21 23 25 25 26 28 29 30 30 30 30 30 29 28 27 27 26 26 26 25 25 25 25
12 12 12 13 13 13 13 13 14 14 14 14 13 12 11 11 11 11 11 11 10 10 10 9 9 9 9 10 10 11 12 12 13 14 15 16 17 18 18 18 18 18 18 17 17 17 16 15 15 15 15 16 17 18 18 19 19 19 19 19 20 20 20 21 23 24 24 25 26 28 29 29 30 29 28 28 28 27 26 26 25 25 25 25 25
12 12 12 12 12 12 13 13 13 14 13 13 12 11 11 10 11 11 11 10 10 9 9 9 8 8 9 9 10 11 11 11 12 13 14 14 16 17 18 18 18 18 17 17 17 17 16 15 15 14 13 14 15 16 17 17 18 18 18 19 20 20 21 21 22 22 23 24 24 24 25 26 27 27 27 27 27 27 26 26 25 25 24 24 25
12 12 12 12 12 12 12 13 13 13 13 12 12 11 11 10 11 11 11 10 9 9 9 9 8 8 8 8 9 10 10 10 11 12 12 13 14 15 16 17 17 17 17 17 17 16 16 16 15 14 13 13 13 14 16 16 16 17 17 17 18 19 20 20 20 20 21 22 22 22 23 23 24 24 25 26 27 27 26 26 26 26 25 25 25
12 11 11 11 11 11 12 12 12 12 12 11 11 11 11 11 11 11 11 10 9 9 9 8 8 7 8 8 8 9 9 10 10 11 12 12 13 13 14 15 16 16 16 16 16 16 16 16 15 14 13 12 11 12 14 15 15 16 16 16 16 17 17 18 18 17 18 19 20 21 21 21 21 22 23 24 24 25 25 25 25 25 25 25 25
12 11 11 11 11 11 11 11 11 11 11 11 11 11 11 11 10 10 10 9 9 8 8 8 7 7 7 8 8 8 9 9 10 10 11 11 12 13 13 14 15 15 16 16 15 16 15 15 15 15 14 13 11 11 12 13 13 14 14 15 15 14 14 15 16 16 17 17 18 18 20 20 21 21 21 22 22 23 23 23 23 23 23 23 24
11 11 11 11 11 10 10 10 11 10 10 10 10 11 11 10 10 10 9 8 8 8 8 8 8 7 7 8 8 8 8 8 9 10 10 11 12 12 13 14 14 15 15 15 15 16 15 15 15 15 14 13 12 12 12 12 12 13 13 13 13 12 12 13 14 15 16 17 17 18 18 18 19 20 21 21 22 22 23 23 24 24 24 24 24
11 11 11 11 10 10 10 10 10 10 10 10 10 11 11 10 10 9 9 8 8 7 8 8 7 7 7 7 8 8 8 8 8 9 10 10 11 12 12 13 13 14 15 15 15 15 15 15 15 15 15 14 13 13 12 12 12 12 12 12 12 12 12 12 12 13 14 15 16 17 17 17 18 19 20 21 21 22 23 24 25 26 26 26 26
11 11 11 11 11 10 10 10 10 10 11 10 10 10 10 10 9 9 8 8 7 7 7 7 7 7 7 7 7 8 8 8 8 9 9 10 10 11 11 12 12 13 14 14 15 15 15 15 15 15 15 15 14 13 13 12 12 12 12 12 11 11 12 12 12 12 13 13 14 15 15 16 17 18 19 19 20 20 21 22 24 25 26 26 26
11 11 11 11 11 10 10 10 10 10 10 10 10 10 10 9 9 8 8 8 7 7 7 7 7 7 7 7 7 7 7 8 8 8 9 10 9 10 11 11 12 12 13 13 14 15 15 15 15 15 15 15 15 14 14 13 13 13 13 12 12 12 12 12 11 12 12 13 13 13 13 14 14 15 16 17 17 17 18 19 19 21 22 23 23
11 11 11 11 11 10 10 10 10 10 10 10 10 9 9 9 9 8 8 7 7 7 7 6 6 6 6 7 7 6 6 7 7 8 9 9 9 9 10 11 12 12 12 12 13 14 14 15 15 15 15 15 15 15 15 14 14 14 13 13 13 13 12 12 12 12 12 12 13 13 13 13 13 13 14 15 15 15 16 16 16 17 17 18 19
11 11 12 12 11 11 10 10 10 10 9 9 9 9 9 9 9 8 7 7 7 7 6 6 6 6 6 6 6 6 6 6 7 7 8 9 9 9 10 10 11 12 12 12 13 13 14 14 14 14 14 14 14 14 14 14 14 14 13 12 13 13 12 12 12 12 11 11 12 12 13 13 14 14 14 14 14 14 14 14 14 14 15 15 16
11 12 12 12 11 11 11 10 10 10 9 9 9 9 9 9 9 8 7 6 6 6 6 6 6 6 6 6 6 6 6 6 6 6 7 8 8 9 9 9 10 11 12 12 12 13 13 14 14 14 13 13 13 13 13 13 13 13 12 12 12 12 12 12 12 11 11 11 11 11 12 12 13 13 13 13 13 13 13 13 13 13 14 14 15
12 12 12 12 11 11 11 11 10 10 10 9 9 9 9 8 7 6 6 5 5 5 5 5 6 6 6 6 6 6 5 5 6 6 6 6 7 7 8 8 8 9 10 10 11 11 12 12 12 12 12 12 12 12 12 12 12 12 11 11 11 11 11 11 11 11 11 11 11 11 11 11 11 12 12 12 13 13 13 13 13 13 13 13 14
12 12 12 11 11 11 11 11 10 10 10 9 9 8 8 7 6 5 5 5 4 4 4 4 4 5 4 4 4 4 4 5 5 5 5 6 6 6 6 6 6 7 8 8 9 9 10 10 10 11 11 11 11 11 11 11 12 11 11 10 10 10 10 10 11 10 10 10 11 11 11 11 11 11 11 11 12 12 13 13 12 13 13 13 13
13 12 12 11 11 11 11 11 11 10 10 10 9 8 7 6 6 5 5 4 4 4 3 3 3 3 3 3 3 3 3 3 3 4 5 5 5 6 6 6 6 6 7 7 8 8 8 9 9 9 10 10 10 10 11 11 11 11 10 10 10 10 10 10 10 10 10 10 10 10 10 10 10 10 10 10 10 11 11 11 12 12 12 12 12
13 13 13 12 11 11 11 11 11 11 10 10 9 8 7 6 6 5 4 4 4 3 3 2 2 1 1 1 1 1 1 2 2 3 4 4 5 5 5 6 6 6 6 7 7 8 8 8 8 8 9 9 9 9 10 10 9 9 9 9 9 9 8 9 9 9 9 9 8 8 8 8 8 8 8 9 9 9 9 10 10 10 11 12 12
14 14 13 13 12 12 11 11 11 11 11 10 10 9 8 7 6 5 4 4 3 3 2 1 0 0 1 1 1 1 1 2 2 2 2 3 3 4 4 5 5 5 6 7 7 7 7 8 8 8 8 8 8 9 9 9 9 8 8 8 8 8 7 7 7 7 7 7 7 6 6 6 6 6 6 7 7 8 8 9 9 10 10 11 11
15 14 14 13 13 12 12 12 12 11 11 11 10 9 8 7 7 6 5 4 4 3 2 1 1 0 0 0 1 1 1 1 2 2 2 2 3 3 3 4 4 5 6 6 6 7 7 7 7 8 8 8 8 8 8 8 8 8 7 7 7 7 7 6 6 6 6 6 6 6 6 6 6 6 6 6 6 7 7 8 9 10 10 11 11
16 15 15 14 14 13 13 12 12 12 11 11 11 10 9 8 8 7 7 6 5 4 3 3 2 1 0 0 0 0 0 1 2 2 2 2 3 3 4 4 5 5 6 5 6 6 7 7 7 7 7 7 7 7 8 8 8 8 7 7 7 7 6 6 6 6 6 5 5 5 5 5 5 6 6 6 6 7 7 8 8 9 10 10 11
16 16 15 15 14 14 14 13 13 12 12 12 11 11 11 9 9 8 8 7 6 5 5 4 3 2 1 1 1 1 1 1 2 2 2 3 3 3 4 4 5 5 5 5 5 6 7 7 7 7 7 8 8 8 8 8 8 8 8 7 7 7 6 6 6 6 5 5 5 5 5 5 5 5 5 6 6 7 7 8 8 9 10 10 11
17 17 16 16 15 15 14 14 13 13 13 12 12 12 12 11 10 10 10 9 8 8 7 6 5 4 3 2 2 2 2 2 3 3 3 3 4 4 4 4 4 5 5 4 5 6 6 7 7 7 8 8 8 8 8 8 8 8 7 7 7 7 6 6 6 5 5 5 5 5 5 5 5 5 5 6 6 7 7 8 9 9 10 11 11
18 18 17 17 16 15 15 15 14 14 14 13 13 13 13 12 11 11 11 11 10 10 9 9 7 6 5 4 4 4 3 3 3 3 3 4 4 4 5 4 5 5 5 5 5 6 6 7 7 7 7 8 8 8 8 7 7 7 7 7 7 7 6 6 6 5 5 5 5 5 5 5 6 6 6 7 7 7 8 9 9 10 11 12 12
19 19 19 18 17 16 16 16 15 15 15 14 14 14 14 13 13 13 12 12 12 12 11 11 10 9 8 7 6 6 5 5 4 4 4 4 4 4 4 4 5 5 5 5 6 6 6 7 7 7 8 8 8 8 8 8 8 7 7 7 7 7 6 6 6 6 6 6 6 6 6 6 7 7 7 8 8 9 9 9 10 11 12 12 13
20 19 19 19 19 18 17 16 16 15 15 15 15 15 15 14 14 14 14 14 14 13 13 13 12 11 10 9 8 7 7 7 6 6 5 5 5 5 5 5 5 5 5 6 6 6 7 7 8 8 8 8 8 8 8 8 8 8 8 7 7 7 7 6 6 6 6 6 6 6 7 7 7 8 8 9 9 10 10 11 11 12 12 13 14
20 20 19 19 19 19 18 17 17 16 16 16 16 16 16 16 15 15 15 15 15 15 15 14 14 13 13 12 11 10 9 8 8 8 8 7 7 7 7 6 6 6 7 7 7 7 7 8 8 8 8 8 8 8 8 8 8 8 8 7 7 7 7 7 7 7 7 7 7 8 8 8 9 9 10 10 11 11 12 12 13 13 13 14 15
20 21 20 20 20 20 19 18 18 18 17 17 16 16 16 17 17 16 16 16 16 16 16 16 16 15 15 14 13 12 11 10 10 10 10 10 9 9 9 8 7 8 8 8 8 8 8 9 9 9 9 9 9 9 9 9 9 8 8 8 8 8 7 7 7 8 8 8 9 9 10 10 10 11 11 11 12 12 12 13 13 14 14 15 15
20 21 21 21 21 21 20 19 19 19 19 18 18 17 17 17 18 18 18 17 17 18 17 17 17 17 17 16 15 14 14 13 12 12 12 11 11 11 10 9 9 9 9 9 9 9 10 10 10 10 10 10 10 10 9 9 9 9 9 9 9 9 9 9 9 10 10 10 10 11 11 11 12 12 12 12 12 13 13 14 14 15 15 16 17
21 21 21 21 22 22 21 20 20 19 19 19 19 18 18 18 18 19 19 19 19 19 19 19 19 18 18 18 17 17 16 15 14 14 13 13 13 13 12 11 11 11 10 11 11 11 11 11 11 11 11 11 11 10 10 10 10 10 10 10 10 10 10 11 11 11 11 11 12 12 12 12 12 13 13 13 13 14 14 15 15 16 17 17 18
20 20 20 21 22 22 22 22 21 20 20 20 20 20 19 19 19 19 19 20 20 20 20 20 20 20 19 19 19 18 18 17 16 16 15 14 14 14 13 13 12 12 12 12 12 12 12 12 12 12 12 12 12 12 11 11 11 11 11 11 11 11 11 11 11 12 12 12 12 13 13 13 13 14 14 14 15 16 16 17 17 18 19 20 21
18 19 20 21 22 22 22 22 22 21 21 21 20 20 20 20 20 20 20 20 20 21 21 21 21 21 21 20 20 20 19 18 17 17 17 16 16 15 15 14 14 14 14 14 14 13 13 13 13 13 13 13 13 13 12 12 12 12 12 12 12 12 12 12 12 12 13 13 13 14 14 14 15 15 16 16 17 18 18 19 20 20 21 22 23
19 19 20 21 21 22 23 23 23 22 22 21 21 21 21 21 21 21 21 21 21 21 21 22 22 22 22 22 22 22 21 20 19 19 18 18 17 17 16 16 16 15 15 15 15 15 15 14 14 14 14 14 14 14 14 13 13 13 13 13 13 13 13 13 13 13 14 14 15 15 15 16 16 17 17 18 19 20 21 22 22 23 24 25 26
20 20 21 21 22 22 23 23 23 23 22 22 22 22 22 22 22 21 22 22 22 22 22 22 23 23 23 23 23 23 23 22 21 20 19 19 19 18 18 17 17 17 17 17 17 16 16 16 15 15 15 15 15 15 15 15 15 15 15 15 15 15 15 15 15 15 15 16 16 17 17 18 18 19 19 20 21 22 23 24 25 26 27 28 29
20 21 21 22 22 23 24 24 24 24 23 23 22 22 22 22 22 22 22 22 22 22 22 23 23 23 23 23 24 25 24 23 23 22 21 21 20 20 19 18 18 18 18 18 18 18 18 17 17 16 16 16 16 16 16 16 16 16 16 16 16 16 16 16 16 16 17 18 18 19 19 20 20 20 21 22 23 24 24 25 26 28 29 30 31
21 21 22 22 23 23 24 25 26 25 24 24 23 23 22 23 23 23 23 23 23 23 23 23 24 24 24 24 24 24 25 25 24 23 23 22 22 21 21 20 20 20 20 20 20 20 19 19 18 18 18 18 18 18 18 18 18 18 17 17 17 17 17 17 18 18 19 19 20 21 21 22 22 22 23 23 24 25 26 27 28 29 30 31 32
21 21 21 22 22 23 23 24 26 26 26 25 25 24 23 23 23 23 23 24 24 23 23 24 24 25 25 25 25 25 25 25 25 25 24 24 23 23 22 22 21 21 21 22 22 21 21 20 20 20 19 19 19 19 19 19 19 19 19 19 19 19 19 20 20 20 20 20 21 21 22 23 24 24 25 25 26 27 28 29 30 31 32 32 33
21 22 22 22 22 22 23 24 25 26 26 26 25 25 25 24 23 23 23 23 23 23 23 24 24 25 25 26 26 26 25 25 25 25 25 24 24 24 24 23 23 22 22 22 22 22 22 22 22 22 21 21 21 21 20 20 20 21 21 21 21 21 21 21 21 21 21 21 21 22 23 24 25 25 26 27 28 29 29 30 31 32 33 34 35
21 22 22 22 22 22 22 23 24 25 26 26 26 26 26 25 25 24 24 24 23 24 24 24 24 24 25 25 26 26 26 26 26 26 25 25 24 24 24 24 24 23 23 23 23 23 23 23 23 23 23 22 22 22 22 22 22 22 22 22 22 22 22 22 22 22 22 23 23 24 25 25 26 27 28 29 30 30 31 32 33 34 35 36 36
22 22 23 23 23 23 23 23 24 25 26 27 27 27 27 27 26 25 25 24 24 24 24 23 24 24 24 25 25 26 26 26 26 26 26 26 25 25 24 24 24 24 24 24 24 24 24 24 24 24 23 23 23 23 23 23 23 23 23 23 23 23 23 23 23 23 24 24 25 26 27 28 28 29 30 30 31 32 33 34 35 35 36 37 38
22 22 23 23 23 23 23 23 24 24 26 26 27 27 28 28 27 26 26 25 24 24 23 23 23 23 24 24 25 25 26 26 26 26 26 26 26 25 25 25 25 24 24 24 24 24 25 25 25 24 24 24 24 24 24 24 24 24 23 23 24 24 24 24 24 25 26 27 28 29 29 30 30 31 32 33 33 34 34 35 36 37 38 39 40
Wind_Direction
295 299 302 304 306 307 308 309 307 306 304 299 299 301 298 294 292 290 285 278 274 270 266 263 262 261 260 258 257 256 253 249 246 245 245 245 246 244 242 240 240 240 240 240 238 237 236 236 234 232 232 232 232 231 230 230 230 230 231 231 229 228 229 230 232 233 234 234 234 236 235 228 225 225 226 227 228 229 230 231 233 235 236 238 238
293 297 300 303 305 306 309 309 307 306 304 300 298 299 297 294 293 293 290 284 278 271 265 261 260 259 258 255 252 252 251 248 245 242 243 244 245 244 243 242 241 240 240 240 240 238 236 236 235 232 231 231 232 232 232 231 231 231 231 232 231 229 230 230 231 233 234 235 234 235 236 233 230 228 227 228 230 230 231 232 233 235 237 238 238
292 296 299 301 304 306 309 309 306 305 304 301 298 297 295 293 293 293 292 289 283 275 267 261 258 256 255 252 249 248 248 246 243 241 241 242 243 243 242 242 241 241 240 240 239 237 235 236 236 233 231 231 232 233 233 232 232 231 231 232 231 230 230 231 231 232 234 234 234 235 236 236 234 232 230 229 231 231 232 233 234 235 237 237 238
292 294 296 299 303 306 308 308 306 306 305 302 299 298 296 295 295 294 293 292 288 280 271 262 256 253 252 249 246 245 245 244 243 241 240 240 241 242 242 241 241 242 241 240 239 238 235 235 237 234 231 231 232 233 234 233 233 232 232 233 232 232 232 232 231 232 233 234 234 234 236 236 236 236 233 231 232 233 234 234 234 235 236 237 238
291 292 295 299 303 306 308 308 307 307 306 303 301 298 297 297 297 296 295 295 293 284 273 264 256 251 248 247 244 242 241 242 242 241 240 238 238 240 241 241 242 242 242 240 240 239 236 236 237 236 233 233 233 234 234 233 233 233 233 233 233 232 232 232 232 232 233 235 235 234 235 236 237 238 237 234 233 234 235 235 235 236 237 237 238
289 291 294 299 303 306 308 307 308 309 308 305 303 299 296 297 299 298 297 298 297 288 276 266 257 251 247 245 243 240 239 239 240 241 241 239 238 239 239 240 241 242 242 242 240 239 237 237 237 236 234 233 234 235 236 235 233 233 235 235 234 233 232 232 232 232 233 234 236 235 234 235 237 238 239 238 236 235 236 235 235 236 237 238 239
288 291 294 299 302 305 307 307 309 310 309 307 304 300 297 299 301 301 299 298 298 293 281 268 258 252 247 244 242 240 238 237 238 240 241 240 239 238 238 239 240 241 242 242 241 239 238 239 238 236 234 232 232 234 237 237 235 235 236 236 235 234 234 233 233 233 233 234 235 236 236 236 237 238 238 239 239 239 238 238 236 236 239 241 241
287 290 294 299 302 305 307 308 310 311 311 309 306 301 298 300 303 302 299 296 296 295 286 272 260 252 246 243 241 239 237 236 238 240 241 241 240 239 238 238 239 239 240 241 242 241 240 239 238 237 234 232 233 235 236 236 237 237 237 237 236 236 235 235 234 234 234 234 235 237 237 235 236 237 238 240 242 241 241 242 241 239 240 242 242
287 290 294 298 302 305 307 309 311 312 312 311 309 304 300 302 304 302 298 295 293 292 287 277 264 253 246 243 241 239 237 236 238 239 240 241 240 239 238 237 237 238 239 240 242 243 242 240 238 237 234 233 234 235 236 237 238 238 238 237 236 236 236 236 236 234 234 234 234 236 236 236 236 237 238 240 242 243 243 244 245 244 243 242 242
287 290 294 298 302 305 307 309 311 313 314 313 312 307 302 303 305 303 298 293 292 291 286 279 268 257 249 244 242 239 237 238 240 240 239 240 240 239 238 237 236 237 238 240 242 243 243 242 240 239 237 236 236 236 236 238 240 242 241 238 237 236 236 237 238 236 235 235 235 235 236 236 237 238 239 240 242 243 244 245 246 246 245 243 243
288 290 294 298 302 304 306 309 311 314 314 314 312 307 303 303 304 304 299 292 290 290 286 280 271 261 252 247 244 240 238 240 242 241 240 239 239 238 237 236 236 237 238 239 241 243 243 242 241 241 240 239 238 238 238 239 241 243 243 242 242 240 236 236 238 238 237 236 235 235 235 236 237 238 239 240 241 243 244 245 246 246 246 246 245
289 291 294 299 301 303 305 308 311 313 314 314 312 307 304 304 305 306 301 293 289 288 286 280 272 264 255 250 246 242 240 242 243 241 240 239 238 237 237 236 236 237 238 238 239 241 242 242 242 242 241 240 239 239 239 240 241 242 242 243 244 243 240 238 238 237 237 236 236 235 235 237 238 238 239 240 241 243 245 246 247 248 248 248 249
289 291 294 298 300 302 305 308 310 313 314 314 312 308 303 302 304 306 303 295 289 287 285 279 272 266 258 253 250 244 243 245 244 242 241 241 239 237 236 236 236 237 238 238 238 238 240 241 241 240 241 240 239 239 240 240 241 241 241 241 241 241 241 241 239 237 236 236 236 237 237 237 238 239 240 242 243 244 246 247 248 250 249 249 249
289 291 294 297 299 302 304 308 310 312 313 313 311 308 303 301 302 304 304 297 288 285 284 278 271 267 261 256 253 247 246 248 244 241 242 241 238 236 234 234 235 236 236 236 236 236 237 239 240 240 240 239 239 239 240 241 241 242 241 241 240 238 239 241 241 239 237 236 236 236 236 237 238 239 240 242 243 244 246 247 248 249 249 249 249
289 291 293 296 299 301 304 308 310 311 312 313 311 307 304 302 301 301 302 298 287 280 279 276 272 269 263 260 257 251 248 248 244 241 242 240 236 234 233 233 233 233 234 234 234 234 235 236 238 239 239 239 240 240 240 241 242 242 242 242 242 240 238 239 240 239 238 237 236 235 235 236 238 239 240 241 243 244 246 247 247 248 248 249 249
289 290 292 295 298 300 304 308 311 312 313 313 312 309 306 303 303 302 300 297 287 277 274 272 271 270 265 262 261 256 250 247 243 241 241 238 235 233 233 232 232 232 232 232 232 233 234 234 236 237 237 239 242 242 241 241 242 242 241 242 244 242 239 237 237 236 235 235 235 234 234 236 237 239 240 242 243 245 246 246 246 247 248 248 248
288 288 290 293 296 299 304 308 311 313 314 315 314 313 309 305 305 305 300 297 290 278 271 268 265 266 266 265 264 260 253 247 243 240 240 239 236 234 233 233 233 232 231 231 231 231 232 233 234 235 236 238 241 242 242 240 240 240 239 239 242 243 240 235 233 232 232 232 232 232 233 235 237 239 240 241 243 244 245 244 245 246 247 247 247
288 287 288 291 293 296 301 306 310 312 315 315 315 315 312 307 305 305 300 297 293 281 271 268 263 263 266 268 269 265 256 248 242 238 238 239 237 234 233 233 233 232 231 231 230 230 231 232 234 235 235 237 240 242 241 240 238 237 237 236 237 239 238 233 230 229 230 233 234 234 234 235 236 238 241 243 245 246 245 245 246 247 248 249 249
289 287 287 289 291 293 297 302 306 309 312 314 314 315 314 309 305 302 299 296 293 282 273 269 264 261 265 269 271 269 260 249 241 237 236 237 236 234 233 233 233 234 233 232 231 230 231 232 235 236 237 238 241 241 240 240 237 234 234 234 233 235 239 239 237 233 231 232 233 234 236 237 238 240 244 247 249 249 249 249 250 251 252 253 253
288 286 286 288 288 289 293 298 302 305 308 311 313 315 316 313 307 302 297 293 291 285 276 270 266 263 265 268 269 269 264 253 243 236 236 238 237 234 232 231 232 234 235 234 233 233 234 234 235 238 239 240 241 241 240 239 236 233 233 233 232 235 240 244 243 238 234 231 231 232 236 239 241 243 245 247 248 250 251 252 253 253 254 255 255
288 286 285 286 285 285 289 295 299 302 304 309 312 315 317 316 311 303 296 292 289 285 279 273 268 264 265 268 267 267 266 258 245 237 237 239 238 235 232 232 232 234 235 235 234 235 236 236 237 239 241 241 241 240 240 239 236 235 235 236 233 233 236 240 242 240 237 235 234 235 237 240 242 243 245 246 248 250 251 253 254 254 254 254 255
289 285 284 284 283 283 286 291 295 298 301 305 311 315 317 317 314 306 297 291 286 283 280 275 269 265 265 267 265 264 266 260 248 239 239 240 239 236 233 233 235 234 233 233 233 234 236 237 237 239 240 240 240 239 238 238 237 237 237 237 235 234 235 238 240 241 240 240 239 239 240 241 242 243 245 246 247 249 250 252 253 253 254 255 256
290 286 284 283 282 281 283 287 291 294 297 301 307 312 314 314 313 306 299 291 284 279 277 273 269 268 268 266 264 264 266 262 251 242 241 242 241 238 236 236 237 235 233 233 234 235 235 236 236 238 238 238 238 237 236 236 236 236 236 235 234 235 238 239 239 240 241 241 241 241 241 241 241 242 243 243 244 246 248 250 253 254 256 258 259
289 287 284 281 279 279 281 285 288 289 292 297 303 309 312 312 310 306 300 294 287 279 272 268 268 270 270 267 264 263 263 261 253 244 241 242 242 240 238 237 237 235 234 235 236 235 235 235 235 235 235 235 234 234 233 232 231 232 232 231 232 234 237 239 240 240 239 239 242 244 244 243 243 243 243 243 243 245 249 251 254 257 259 262 264
286 285 283 280 277 276 278 282 284 286 288 292 298 306 311 311 309 305 302 298 293 284 275 269 270 273 272 268 266 262 258 255 249 241 236 236 237 236 233 231 234 234 231 229 229 229 229 230 230 229 229 229 227 225 224 224 224 225 227 230 232 233 236 238 239 238 237 236 238 241 243 243 243 243 244 246 247 248 249 250 252 255 258 261 264
282 282 281 279 276 275 276 278 280 281 283 286 292 301 307 308 306 306 303 300 297 291 285 282 279 276 272 269 266 260 253 248 241 232 226 225 224 222 221 223 224 221 217 216 215 216 218 218 218 218 217 216 214 214 214 215 216 219 224 229 231 231 232 233 234 235 236 236 236 236 237 238 239 239 242 245 248 251 253 254 256 258 260 263 266
278 277 277 277 275 273 274 276 277 277 278 281 286 294 301 300 298 299 298 297 296 293 293 296 291 281 273 268 262 252 243 236 229 222 217 215 214 214 216 219 218 215 211 209 206 204 205 205 205 205 204 204 205 207 208 210 213 217 221 225 227 228 228 229 229 230 231 232 233 233 234 235 237 238 240 243 246 251 255 257 260 262 264 267 269
275 274 273 273 273 271 271 272 273 273 273 276 281 287 292 291 288 289 292 293 294 296 299 300 294 283 261 234 232 222 208 206 208 209 208 207 209 212 215 216 217 216 210 203 199 198 198 199 200 200 200 200 201 203 204 206 208 211 214 217 219 221 223 223 224 224 225 227 228 229 231 233 234 237 239 242 245 250 254 257 260 263 265 267 270
273 272 270 269 270 270 268 268 269 269 269 272 274 279 283 282 277 276 279 281 283 289 297 302 306 100 119 109 76 97 152 162 168 178 185 189 194 199 202 203 206 206 199 194 195 197 198 200 199 198 197 197 197 199 200 201 203 205 208 211 214 215 217 216 215 214 215 217 218 220 223 227 231 235 241 246 250 254 256 258 260 263 265 268 271
270 269 268 267 267 267 266 266 265 264 266 268 268 271 275 274 268 263 262 266 269 269 262 244 206 123 116 114 62 57 102 130 137 140 146 154 161 166 168 169 175 180 181 186 194 197 196 196 195 195 195 195 194 195 196 197 198 197 198 200 201 201 202 201 200 200 202 206 210 215 220 226 232 238 244 249 254 257 260 262 263 265 268 271 273
266 266 265 264 264 264 264 264 263 261 262 264 265 265 266 265 262 257 253 254 258 257 245 231 221 220 215 187 187 60 88 125 139 147 151 150 148 148 147 147 153 162 168 178 187 187 186 188 189 189 189 188 187 187 187 186 186 185 184 185 186 185 187 189 190 192 196 202 209 215 222 228 233 239 245 249 254 259 263 267 270 273 276 278 280
264 264 264 262 261 261 262 261 261 259 258 260 262 262 260 258 257 253 248 246 246 242 234 227 226 235 244 235 225 224 204 175 161 156 157 157 155 152 150 149 152 158 163 170 176 177 177 179 179 180 181 180 179 181 181 181 181 181 181 182 183 185 186 187 189 194 198 202 207 212 219 226 232 239 247 253 259 265 270 274 277 280 283 285 287
262 264 263 260 259 259 259 259 259 257 256 256 258 258 257 255 253 250 246 242 239 234 229 228 231 234 234 230 224 214 200 186 175 166 161 160 159 158 158 160 164 166 167 172 176 175 174 175 176 178 179 179 179 180 182 182 183 184 185 186 186 188 189 190 192 198 201 205 211 217 225 233 241 248 256 263 269 274 278 281 284 286 287 289 290
260 261 261 258 257 257 256 257 258 257 255 254 254 255 255 254 251 248 244 240 236 232 229 229 230 230 229 226 222 215 205 192 186 181 175 171 170 169 168 170 175 180 186 193 192 187 184 184 184 185 185 184 184 185 185 185 186 186 186 187 188 190 193 197 202 207 212 219 227 235 242 250 256 262 267 271 275 280 283 286 288 290 290 291 293
258 258 258 256 256 256 256 255 256 256 255 254 252 252 252 252 249 247 243 240 237 234 231 231 229 228 229 228 224 222 219 213 208 203 197 193 192 188 184 186 190 194 199 203 202 199 197 195 194 192 191 191 190 190 190 190 190 191 191 192 196 200 205 211 216 223 230 237 243 248 255 260 265 269 272 275 278 282 285 288 291 292 292 292 293
257 256 256 255 254 255 255 254 254 255 255 253 252 252 251 249 248 246 243 241 239 236 235 234 231 229 230 231 229 228 229 227 225 222 220 217 212 207 209 214 215 213 213 211 207 204 202 199 196 195 195 194 194 194 195 195 196 198 199 202 206 211 216 223 228 234 240 245 249 255 261 266 270 274 276 278 281 282 284 287 292 296 296 295 295
258 256 255 254 253 253 253 253 253 253 253 253 252 252 250 247 246 245 243 241 239 238 237 236 233 232 232 231 230 231 233 233 232 231 231 231 226 224 229 232 227 222 221 217 213 210 206 203 201 200 199 199 199 199 201 201 203 204 207 212 218 222 227 232 237 242 248 253 258 263 267 270 274 277 279 281 283 285 286 287 290 294 297 298 298
259 256 254 253 253 252 253 253 253 252 252 252 252 252 250 247 245 244 243 241 239 239 238 237 236 235 235 233 231 231 232 233 234 234 234 234 232 232 237 238 231 227 225 221 218 216 213 210 210 209 208 208 208 209 209 211 212 215 219 224 229 232 235 240 246 251 256 260 263 267 269 272 275 278 280 281 283 285 288 289 290 292 294 295 298
261 257 255 255 254 254 253 253 253 252 252 251 250 251 251 249 246 244 243 241 239 238 239 239 237 237 237 235 233 232 233 234 236 236 236 235 234 236 239 238 234 231 228 225 223 222 220 218 218 217 217 217 217 218 219 220 222 225 229 233 236 238 242 248 254 257 260 263 266 268 270 272 275 277 279 280 282 284 286 289 291 292 293 295 297
263 258 255 253 253 253 253 252 252 252 252 250 249 249 250 249 247 245 243 241 239 238 239 239 239 238 238 237 235 234 235 237 238 238 237 236 236 237 240 239 237 235 232 229 228 227 225 224 223 224 224 224 224 225 227 228 230 232 235 238 241 245 250 255 258 260 262 264 266 268 270 272 275 277 278 280 282 284 286 288 290 291 293 295 296
266 258 253 251 251 252 252 252 251 252 252 251 249 248 248 248 248 247 245 243 241 239 239 239 239 239 238 236 235 235 236 239 240 239 239 238 238 238 240 240 239 237 234 232 231 231 229 228 228 228 229 229 229 231 232 233 235 238 240 244 248 251 255 259 261 262 263 264 266 268 271 272 275 277 278 280 283 284 285 287 288 289 291 293 294
267 260 255 253 251 251 253 252 251 251 251 250 248 247 247 247 248 247 246 244 243 241 240 239 240 239 238 235 234 235 238 241 242 241 240 239 239 240 241 242 241 239 236 235 234 233 233 232 232 232 232 232 233 234 236 238 240 243 245 249 252 255 259 262 264 265 266 267 269 271 272 274 276 278 279 282 284 285 285 287 289 290 292 293 294
269 263 259 256 254 252 252 252 251 250 249 248 248 247 247 247 247 247 246 245 244 243 242 241 240 240 239 236 235 237 239 242 243 243 241 241 240 241 241 242 241 240 238 236 235 235 235 235 236 235 235 235 236 237 239 240 243 246 249 251 254 256 260 263 265 267 269 271 273 275 276 278 279 280 281 284 286 287 287 288 290 291 293 294 295
270 264 261 259 256 254 252 252 252 250 248 248 248 248 247 247 247 247 246 245 244 244 244 243 242 241 240 238 237 238 240 241 243 243 242 242 242 242 242 242 240 239 238 237 236 236 236 238 238 238 238 238 238 239 241 243 245 248 251 253 255 258 261 265 268 270 273 276 277 278 279 281 282 282 283 285 288 290 290 289 290 292 293 294 295
272 267 263 261 258 256 254 253 252 251 249 248 249 249 248 247 246 246 247 246 245 244 244 244 244 243 242 240 238 238 239 241 241 242 242 242 243 244 243 242 240 239 238 238 237 237 238 239 240 240 241 241 241 242 244 246 249 251 254 256 258 260 262 265 269 272 275 279 281 281 282 283 284 284 284 286 288 290 291 290 291 293 294 294 295
273 270 265 262 260 259 256 252 249 249 250 250 249 249 248 247 247 246 246 246 246 245 245 245 244 244 243 242 240 239 239 240 241 241 242 242 243 245 245 244 243 241 240 239 238 238 239 240 241 242 244 244 244 245 247 250 252 254 256 258 260 261 263 265 269 273 276 278 281 282 283 284 284 286 287 287 288 290 291 292 293 294 294 295 295
274 271 268 264 261 259 256 251 247 247 249 250 249 248 247 247 246 246 245 245 246 246 246 246 245 244 244 243 242 241 240 239 240 241 241 242 244 245 245 245 244 243 241 240 240 240 241 241 243 245 246 247 247 248 251 253 255 257 258 260 261 263 265 267 270 273 276 279 281 283 285 286 287 287 288 289 289 290 292 293 294 295 295 296 296
274 271 268 264 262 260 257 253 250 249 249 249 249 248 247 246 246 245 245 245 245 246 247 247 246 246 244 243 243 242 241 241 241 241 241 242 244 245 245 245 244 243 242 241 241 241 242 243 244 246 247 248 249 251 253 255 257 258 259 261 263 266 268 270 272 274 277 280 283 284 286 288 290 290 291 291 292 293 294 295 295 296 296 296 296
276 272 268 264 262 261 258 256 254 252 250 250 249 248 247 246 245 244 245 245 246 246 247 247 247 247 245 244 243 243 243 242 242 241 241 242 243 244 245 245 244 243 242 242 242 242 243 244 245 246 247 249 250 252 254 256 258 260 263 265 266 267 268 270 273 275 277 280 284 285 286 288 290 291 292 292 293 293 294 295 295 295 295 295 296
279 275 270 266 263 262 259 258 256 253 251 250 251 250 249 248 246 244 243 244 245 246 247 247 248 247 246 244 243 242 242 242 242 242 241 241 242 243 244 245 244 243 243 243 242 242 242 243 245 246 247 249 251 253 255 258 260 263 265 266 266 266 267 270 272 275 278 281 284 285 286 287 289 291 292 293 293 293 293 294 294 294 295 295 295
280 277 273 268 265 263 260 258 257 254 252 251 252 251 249 247 245 244 242 243 244 244 245 246 247 246 246 245 243 242 241 241 241 241 241 241 242 242 243 243 243 243 243 243 242 242 242 243 245 247 248 251 253 255 258 260 263 264 265 265 265 266 267 270 272 275 278 281 283 285 286 287 289 290 292 293 293 293 293 294 293 293 294 294 295